Location: Newark
(36.1358°N, 115.1208°W)
Time: 12:12:39
(UTC+00:00)

Vanguard 2 Rocket - All Passes

Search period start: 17 February 2020 00:00
Search period end: 27 February 2020 00:00
Orbit: 554 x 3326 km, 32.9° (Epoch: 16 February)

Date Brightness Start Highest point End Pass type
(mag) Time Alt. Az. Time Alt. Az. Time Alt. Az.
17 Feb - 01:53:25 10° SSW 02:06:49 25° SSE 02:16:58 10° E visible
17 Feb - 04:07:16 10° SW 04:22:54 49° SSE 04:32:14 10° E visible
17 Feb - 06:25:11 10° WSW 06:37:55 70° S 06:44:52 10° E visible
17 Feb - 08:43:11 10° W 08:51:37 58° SSW 08:56:38 10° ESE night (unlit)
17 Feb - 11:00:21 10° WSW 11:03:41 17° SW 11:06:29 10° S night (unlit)
18 Feb - 00:54:23 10° S 01:05:36 18° SE 01:15:00 10° ESE daylight
18 Feb - 03:05:37 10° SW 03:21:59 42° SSE 03:32:36 10° E visible
18 Feb - 05:22:48 10° WSW 05:37:38 66° S 05:45:52 10° E visible
18 Feb - 07:41:27 10° W 07:52:03 69° S 07:57:57 10° ESE visible
18 Feb - 09:58:54 10° W 10:04:46 30° SSW 10:08:49 10° SSE night (unlit)
18 Feb - 23:58:10 10° SSE 00:04:19 12° SE 00:10:04 10° ESE daylight
19 Feb - 02:04:34 10° SSW 02:20:49 35° SSE 02:32:26 10° E visible
19 Feb - 04:20:26 10° WSW 04:37:01 61° SSE 04:46:39 10° E visible
19 Feb - 06:39:14 10° W 06:52:08 74° S 06:59:07 10° E visible
19 Feb - 08:57:26 10° W 09:05:37 46° SSW 09:10:35 10° SE night (unlit)
20 Feb - 01:04:20 10° SSW 01:19:29 28° SE 01:31:31 10° E daylight
20 Feb - 03:18:19 10° SW 03:36:02 54° SSE 03:47:08 10° E visible
20 Feb - 05:36:41 10° WSW 05:51:50 74° S 06:00:08 10° E visible
20 Feb - 07:55:37 10° W 08:06:09 61° SSW 08:12:05 10° ESE visible
20 Feb - 10:13:45 10° W 10:18:23 19° SW 10:21:54 10° S night (unlit)
21 Feb - 00:05:19 10° S 00:18:08 21° SE 00:29:23 10° E daylight
21 Feb - 02:16:42 10° SW 02:34:45 46° SSE 02:47:14 10° E visible
21 Feb - 04:34:02 10° WSW 04:51:09 70° S 05:00:57 10° E visible
21 Feb - 06:53:22 10° W 07:06:18 72° S 07:13:20 10° ESE visible
21 Feb - 09:11:49 10° W 09:19:24 33° SSW 09:24:15 10° SSE night (unlit)
21 Feb - 23:08:38 10° SSE 23:16:51 14° SE 23:24:41 10° ESE daylight
22 Feb - 01:15:46 10° SSW 01:33:17 39° SSE 01:46:46 10° E daylight
22 Feb - 03:31:34 10° WSW 03:50:04 65° SSE 04:01:29 10° E visible
22 Feb - 05:50:44 10° W 06:06:01 76° S 06:14:23 10° E visible
22 Feb - 08:09:50 10° W 08:20:07 50° SSW 08:26:01 10° SE visible
22 Feb - 10:30:08 10° WSW 10:31:49 11° SW 10:33:20 10° SSW night (unlit)
23 Feb - 00:15:44 10° SSW 00:31:47 31° SE 00:45:32 10° E daylight
23 Feb - 02:29:31 10° SW 02:48:41 58° SSE 03:01:42 10° E visible
23 Feb - 04:47:56 10° WSW 05:05:18 76° S 05:15:12 10° E visible
23 Feb - 07:07:31 10° W 07:20:23 64° SSW 07:27:26 10° ESE visible
23 Feb - 09:26:34 10° W 09:32:57 23° SW 09:37:23 10° S night (unlit)
23 Feb - 23:16:54 10° S 23:30:23 23° SE 23:43:03 10° E daylight
24 Feb - 01:28:06 10° SW 01:47:03 50° SSE 02:01:28 10° E visible
24 Feb - 03:45:13 10° WSW 04:04:10 73° S 04:15:45 10° E visible
24 Feb - 06:04:52 10° W 06:20:10 73° S 06:28:34 10° ESE visible
24 Feb - 08:24:10 10° W 08:33:50 37° SSW 08:39:40 10° SSE visible
24 Feb - 22:20:15 10° SSE 22:29:12 15° SE 22:38:09 10° ESE daylight
25 Feb - 00:27:26 10° SSW 00:45:23 41° SSE 01:00:39 10° E daylight
25 Feb - 02:42:51 10° WSW 03:02:39 68° SSE 03:16:01 10° E visible
25 Feb - 05:02:00 10° W 05:19:28 78° S 05:29:26 10° E visible
25 Feb - 07:21:43 10° W 07:34:16 53° SSW 07:41:21 10° SE visible
25 Feb - 09:42:17 10° WSW 09:46:15 14° SW 09:49:27 10° SSW night (unlit)
25 Feb - 23:27:43 10° SSW 23:43:49 32° SE 23:59:00 10° E daylight
26 Feb - 01:41:02 10° SW 02:00:52 60° SSE 02:15:52 10° E visible
26 Feb - 03:59:08 10° WSW 04:18:18 78° S 04:30:00 10° E visible
26 Feb - 06:19:01 10° W 06:34:13 66° SSW 06:42:39 10° ESE visible
26 Feb - 08:38:50 10° W 08:47:17 26° SW 08:52:49 10° SSE night (unlit)
26 Feb - 22:29:09 10° S 22:42:29 24° SE 22:56:05 10° E daylight
